Location: Middle Street
(51.7167°N, 0.0333°E)
Time: 19:58:18
(UTC+00:00)

ARGOS - Pass Details

Date: 20 January 2021
Orbit: 821 x 834 km, 98.4° (Epoch: 27 February)

Event Time Altitude Azimuth Distance (km) Brightness Sun altitude
Rises 19:11:38 0° 173° (S) 3,342 6.3 -24.8°
Reaches altitude 10° 19:14:00 10° 177° (S) 2,415 5.5 -25.2°
Maximum altitude 19:19:18 63° 258° (WSW) 917 3.5 -26.0°
Drops below altitude 10° 19:24:40 10° 340° (NNW) 2,438 5.8 -26.8°
Sets 19:27:04 0° 344° (NNW) 3,378 6.6 -27.2°
